Date,TemperatureHighF,TemperatureAvgF,TemperatureLowF,DewpointHighF,DewpointAvgF,DewpointLowF,HumidityHigh,HumidityAvg,HumidityLow,PressureMaxIn,PressureMinIn,WindSpeedMaxMPH,WindSpeedAvgMPH,GustSpeedMaxMPH,PrecipitationSumIn
2013-1-1,50.4,48.6,41.3,47.9,39.0,20.4,91,73,33,30.21,30.02,0,0,7,0.00
2013-1-2,49.4,47.4,44.6,46.9,43.2,39.0,91,86,71,30.25,29.98,1,0,6,0.00
2013-1-3,44.8,41.2,29.4,41.5,37.3,27.1,91,86,72,30.38,30.20,0,0,3,0.00
2013-1-4,50.0,35.1,24.2,33.2,22.5,9.9,91,67,20,30.45,30.32,1,0,8,0.00
2013-1-5,50.8,36.6,22.2,38.6,22.3,8.0,91,64,18,30.51,30.33,0,0,3,0.00
2013-1-6,53.2,44.7,38.0,40.2,36.9,27.4,91,76,50,30.32,30.13,1,0,5,0.00
2013-1-7,52.8,39.7,27.5,31.4,26.3,20.2,91,64,29,30.52,30.29,1,0,6,0.00
2013-1-8,56.7,42.6,27.6,42.9,34.1,25.3,91,74,44,30.56,30.45,1,0,3,0.00
2013-1-9,67.4,51.0,35.6,49.8,42.7,33.2,91,76,39,30.54,30.45,6,0,6,0.00
2013-1-10,69.1,54.9,44.2,51.5,44.6,37.0,91,72,33,30.59,30.45,5,0,5,0.00
2013-1-11,54.2,49.6,47.0,50.9,47.0,44.5,91,91,82,30.45,30.25,6,0,6,0.00
2013-1-12,74.6,59.6,48.6,63.9,54.0,46.1,91,83,56,30.25,30.16,7,0,7,0.00
2013-1-13,74.0,63.1,51.1,61.2,56.3,48.6,91,80,52,30.21,30.12,9,0,9,0.00
2013-1-14,65.3,64.0,62.7,61.2,60.1,58.1,91,87,82,30.19,30.13,8,0,8,0.00
2013-1-15,63.3,50.0,43.8,60.6,47.4,41.3,91,91,91,30.28,30.15,1,0,5,0.00
2013-1-16,50.2,46.0,42.5,47.7,43.5,40.1,91,91,91,30.15,30.07,1,0,6,0.00
2013-1-17,51.4,45.9,33.8,48.9,43.4,31.5,91,91,91,30.28,29.87,13,0,13,1.06
2013-1-18,47.9,36.3,28.1,32.8,26.5,11.2,91,73,24,30.63,30.28,7,0,7,0.01
2013-1-19,55.0,38.0,22.4,32.3,22.6,1.1,91,64,11,30.60,30.25,6,0,6,0.01
2013-1-20,64.3,46.4,31.8,37.7,26.9,12.1,91,54,15,30.25,30.09,6,0,6,0.00
2013-1-21,61.2,43.4,27.6,38.2,19.8,-0.8,91,51,11,30.18,30.00,8,0,8,0.00
2013-1-22,43.5,35.7,25.3,12.7,-3.4,-52.2,55,23,1,30.36,30.08,8,0,8,0.00
2013-1-23,44.9,32.1,19.2,23.4,8.8,-17.7,86,46,8,30.47,30.14,7,0,7,0.00
2013-1-24,46.2,34.7,24.2,32.0,11.0,-17.2,91,47,9,30.60,30.07,14,0,14,0.00
2013-1-25,26.9,24.3,18.4,26.4,16.5,3.8,98,74,39,30.62,30.23,3,0,3,0.00
2013-1-26,46.4,32.4,24.7,37.3,29.5,24.2,98,91,53,30.48,30.21,0,0,3,0.00
2013-1-27,44.8,34.7,23.5,30.5,26.0,22.0,98,73,42,30.68,30.48,6,0,6,0.00
2013-1-28,51.1,42.6,33.2,50.6,38.1,26.9,98,85,55,30.58,30.33,7,0,7,0.00
2013-1-29,74.4,58.1,45.8,62.5,53.2,45.3,98,86,54,30.34,30.11,10,0,10,0.00
2013-1-30,76.0,66.6,51.9,67.7,62.7,51.2,98,89,55,30.11,29.50,19,2,19,0.00
2013-1-31,51.7,45.6,39.3,51.2,32.9,12.3,98,65,25,30.01,29.62,17,1,17,0.00
2013-2-1,42.2,36.9,23.5,27.1,9.7,-13.3,70,36,9,30.48,30.00,4,1,17,0.00
2013-2-2,47.3,34.3,19.2,36.3,13.9,-3.7,92,52,13,30.51,30.13,13,0,13,0.00
2013-2-3,56.2,42.6,31.3,37.3,26.8,5.3,98,60,16,30.13,29.93,12,0,12,0.00
2013-2-4,51.3,38.2,25.0,29.0,22.8,14.9,96,60,25,30.24,30.09,6,0,6,0.00
2013-2-5,64.8,48.8,36.8,40.6,32.5,25.4,98,56,32,30.09,29.95,9,0,9,0.00
2013-2-6,65.8,45.3,30.6,44.4,28.5,10.6,98,64,12,30.31,30.06,6,0,6,0.00
2013-2-7,45.1,39.0,32.4,42.7,36.6,29.4,98,91,77,30.38,30.07,6,0,6,0.00
2013-2-8,60.2,45.9,37.8,47.3,39.0,26.3,98,79,47,30.18,29.93,10,0,10,0.00
2013-2-9,59.2,40.8,26.4,32.9,22.0,0.6,98,59,10,30.44,30.18,7,0,7,0.00
2013-2-10,58.0,43.1,27.9,49.6,27.9,6.3,98,66,14,30.56,30.26,10,0,10,0.00
2013-2-11,62.1,57.3,48.9,61.5,56.6,48.4,98,97,92,30.26,30.00,13,1,13,0.00
2013-2-12,61.0,51.9,41.5,53.0,37.5,14.1,98,67,16,30.18,30.00,7,0,7,0.00
2013-2-13,49.1,46.1,38.5,48.6,45.4,38.0,98,98,88,30.03,29.73,12,0,12,0.00
2013-2-14,53.2,39.7,28.7,38.0,32.7,26.6,98,80,38,30.16,29.97,6,0,6,0.00
2013-2-15,63.4,44.6,28.5,44.0,30.5,18.4,98,68,19,30.19,30.02,8,0,8,0.00
2013-2-16,46.8,35.9,26.3,38.6,33.3,25.8,98,91,65,30.10,29.92,7,0,7,0.00
2013-2-17,42.9,30.3,21.3,25.8,15.1,-6.7,98,61,13,30.37,30.10,12,0,12,0.00
2013-2-18,55.6,37.2,19.1,30.1,20.1,6.6,98,59,19,30.50,30.31,8,0,8,0.00
2013-2-19,47.7,40.5,31.8,46.9,36.7,23.6,98,87,50,30.31,29.98,11,0,11,0.00
2013-2-20,55.3,38.9,24.2,31.3,19.5,-11.7,98,59,6,30.21,30.10,7,0,7,0.00
2013-2-21,60.1,40.7,23.8,41.8,21.0,-1.3,98,57,9,30.34,30.18,5,0,5,0.00
2013-2-22,43.1,37.9,36.3,41.2,36.8,30.2,98,96,60,30.40,30.20,1,0,2,0.00
2013-2-23,43.3,39.5,36.3,42.8,39.0,35.8,98,98,98,30.23,29.93,2,0,2,0.00
2013-2-24,66.0,49.6,35.2,47.1,37.4,14.7,98,72,14,30.12,29.92,8,0,8,0.00
2013-2-25,42.3,40.2,34.7,34.7,25.7,22.8,98,56,49,30.29,30.11,6,0,6,0.00
2013-2-26,45.8,39.9,33.4,45.3,37.7,23.4,98,93,54,30.18,29.66,5,0,5,0.00
2013-2-27,58.7,46.7,36.2,41.1,37.2,30.7,98,73,40,29.90,29.74,8,0,8,0.00
2013-2-28,51.9,41.1,30.9,37.1,28.2,17.4,98,65,28,29.98,29.81,7,0,7,0.00
2013-3-1,48.0,38.0,26.1,35.1,28.7,24.0,98,73,41,30.03,29.96,8,0,8,0.00
2013-3-2,46.2,37.9,29.7,38.7,33.5,22.1,98,85,58,30.04,29.92,6,0,6,0.00
2013-3-3,47.9,34.4,22.7,26.4,18.6,9.4,98,58,22,30.10,29.98,11,0,11,0.00
2013-3-4,55.6,37.4,21.0,30.4,16.6,0.0,97,53,11,30.24,30.10,10,0,10,0.00
2013-3-5,54.7,45.6,35.8,49.1,38.7,23.4,98,78,49,30.15,29.68,6,0,6,0.00
2013-3-6,50.4,41.9,34.7,44.7,25.7,15.5,98,55,28,30.21,29.68,16,1,16,0.00
2013-3-7,55.7,40.7,26.9,30.2,26.0,19.8,98,62,25,30.35,30.21,8,0,8,0.00
2013-3-8,57.6,41.5,26.0,29.1,22.5,12.3,98,53,17,30.42,30.29,5,0,16,0.00
2013-3-9,66.3,44.8,26.7,37.0,28.7,21.2,98,62,19,30.44,30.32,1,0,6,0.00
2013-3-10,68.9,50.0,32.5,41.1,33.8,26.1,98,63,21,30.39,30.26,8,0,8,0.00
2013-3-11,70.3,55.0,38.3,58.1,44.3,30.9,98,69,40,30.28,29.92,17,0,17,0.00
2013-3-12,71.1,60.3,46.4,61.4,48.5,19.2,98,71,19,30.07,29.82,10,0,10,0.00
2013-3-13,59.9,44.9,32.4,39.8,23.7,9.6,98,52,14,30.26,30.06,14,1,14,0.00
2013-3-14,54.7,40.1,28.4,27.0,15.3,0.6,77,41,12,30.38,30.24,10,0,11,0.00
2013-3-15,65.5,45.5,27.0,41.8,28.0,11.7,97,59,22,30.31,29.96,12,0,12,0.00
2013-3-16,78.5,66.1,48.8,44.7,39.1,32.0,76,39,22,29.98,29.77,19,1,19,0.00
2013-3-17,76.3,58.7,46.7,54.8,44.0,36.0,92,61,29,30.18,29.92,7,0,7,0.00
2013-3-18,46.7,42.5,39.5,43.8,41.4,39.0,98,96,78,30.23,29.95,7,0,7,0.00
2013-3-19,68.1,52.1,40.5,49.3,28.7,0.4,98,55,7,30.12,29.93,12,0,12,0.00
2013-3-20,58.3,48.1,40.6,29.5,8.4,-8.2,58,22,7,30.20,29.86,10,0,10,0.00
2013-3-21,48.8,39.3,29.4,30.1,9.8,-7.0,70,32,10,30.08,29.86,19,0,19,0.00
2013-3-22,54.4,38.6,23.5,22.5,13.3,3.1,82,40,14,30.20,30.07,10,0,10,0.00
2013-3-23,53.2,43.8,37.5,44.9,37.7,19.3,98,81,34,30.14,29.97,2,0,2,0.00
2013-3-24,42.1,40.2,38.3,41.6,39.7,37.7,98,98,98,30.03,29.63,7,0,7,0.00
2013-3-25,50.7,41.8,37.0,39.8,26.8,9.7,98,63,21,29.98,29.64,13,1,13,0.00
2013-3-26,48.9,40.0,29.5,26.1,22.8,17.3,81,52,31,30.27,29.97,12,0,12,0.00
2013-3-27,54.1,40.0,26.9,31.1,21.9,9.0,98,55,18,30.35,30.26,13,0,13,0.00
2013-3-28,58.0,41.1,27.2,29.8,20.7,6.7,96,53,15,30.40,30.28,11,0,11,0.00
2013-3-29,63.4,44.6,26.7,34.2,22.2,9.8,98,54,14,30.45,30.27,7,0,7,0.00
2013-3-30,66.1,54.6,46.0,49.3,44.0,35.2,98,72,32,30.31,30.13,3,0,6,0.00
2013-3-31,71.1,59.5,49.9,58.4,53.1,47.6,98,82,49,30.12,29.88,3,0,12,0.00
2013-4-1,74.3,61.8,48.0,57.9,43.6,25.2,98,61,16,30.05,29.90,2,0,12,0.00
2013-4-2,65.3,51.6,36.3,43.6,29.4,7.4,98,50,11,30.25,30.05,3,0,8,0.00
2013-4-3,62.3,52.5,43.2,35.6,18.8,7.0,66,28,13,30.37,30.20,8,0,8,0.00
2013-4-4,46.1,41.2,37.2,40.6,34.4,14.3,98,80,28,30.37,30.05,8,0,8,0.00
2013-4-5,65.2,48.6,36.9,49.7,41.6,35.8,98,81,35,30.14,29.99,7,0,7,0.00
2013-4-6,71.1,51.8,33.4,45.8,35.4,23.5,98,64,18,30.32,30.13,8,0,8,0.00
2013-4-7,72.7,57.0,37.9,52.4,42.1,33.3,98,62,26,30.36,30.18,8,0,8,0.00
2013-4-8,79.8,65.9,53.2,58.5,53.2,45.2,98,69,30,30.24,30.12,10,0,12,0.00
2013-4-9,84.3,69.7,53.8,59.9,55.5,49.6,98,66,31,30.27,30.14,8,0,8,0.00
2013-4-10,87.6,72.8,60.4,63.4,58.5,48.6,98,66,30,30.18,30.02,10,0,10,0.00
2013-4-11,82.2,70.9,61.8,70.1,62.8,57.5,98,78,44,30.05,29.83,14,0,14,0.00
2013-4-12,82.8,71.2,65.6,69.7,64.2,35.4,98,83,19,29.83,29.69,12,1,12,0.00
2013-4-13,77.0,60.0,42.6,50.7,40.6,25.6,98,59,16,30.10,29.89,1,0,8,0.00
2013-4-14,78.1,60.6,41.6,52.8,43.2,32.5,98,62,21,30.17,30.06,1,0,10,0.00
2013-4-15,72.4,64.3,58.0,63.7,59.4,51.9,98,85,64,30.27,30.04,1,0,8,0.00
2013-4-16,80.5,66.6,57.3,66.1,60.5,56.7,98,84,46,30.36,30.25,6,0,6,0.00
2013-4-17,85.7,69.9,55.0,69.1,60.1,50.9,98,76,31,30.33,30.16,8,0,8,0.00
2013-4-18,82.2,71.3,62.9,68.5,62.0,55.5,98,75,41,30.24,30.06,12,0,12,0.00
2013-4-19,81.2,68.8,55.7,70.2,65.5,54.2,98,90,58,30.06,29.80,19,1,19,0.00
2013-4-20,65.6,53.8,42.9,55.0,36.4,20.8,98,59,19,30.35,29.96,7,0,7,0.00
2013-4-21,65.3,50.9,36.2,46.1,39.7,34.0,98,70,34,30.54,30.35,7,0,7,0.00
2013-4-22,67.1,51.4,38.6,44.2,34.0,14.5,98,60,16,30.52,30.31,8,0,8,0.00
2013-4-23,71.3,58.7,45.8,55.7,48.9,43.0,95,71,50,30.35,30.19,62,0,62,0.29
2013-4-24,74.6,65.2,58.1,59.3,50.0,41.3,80,58,47,30.22,30.07,12,0,12,0.02
2013-4-25,71.6,60.7,45.8,61.2,43.4,18.2,98,60,16,30.36,30.11,5,0,5,0.00
2013-4-26,73.5,56.7,38.3,54.0,37.6,21.0,98,61,15,30.52,30.36,9,0,9,0.00
2013-4-27,65.3,58.1,53.9,60.4,52.8,42.5,98,84,48,30.45,30.33,3,0,3,0.07
2013-4-28,59.9,56.2,54.5,59.3,55.6,54.0,98,98,98,30.33,30.13,7,0,7,1.51
2013-4-29,71.3,62.3,56.7,67.0,60.2,56.1,98,93,67,30.13,30.01,4,0,4,0.23
2013-4-30,71.6,62.4,55.9,65.1,60.3,55.3,98,93,72,30.25,30.06,8,0,8,0.00
2013-5-1,64.7,58.0,49.6,61.4,56.7,49.1,98,95,82,30.36,30.25,6,0,6,0.03
2013-5-2,63.9,58.7,56.6,62.5,58.0,56.0,98,98,90,30.39,30.30,5,0,5,0.11
2013-5-3,69.3,60.7,53.6,57.7,54.1,44.0,98,81,55,30.31,30.19,12,0,12,0.00
2013-5-4,63.7,56.1,48.9,54.8,49.3,42.0,98,79,61,30.22,30.08,5,0,10,0.00
2013-5-5,59.5,54.8,51.4,58.9,53.7,50.3,98,96,87,30.11,29.95,10,0,10,0.45
2013-5-6,72.8,62.5,52.2,64.4,55.6,42.2,98,82,39,29.98,29.88,12,0,12,0.74
2013-5-7,71.1,57.9,46.2,57.2,49.8,42.0,98,79,41,30.04,29.93,10,0,10,0.09
2013-5-8,54.4,54.4,54.4,53.8,53.8,53.8,98,98,98,30.03,30.03,0,0,0,0.09
2013-5-9,54.4,54.4,54.4,53.8,53.8,53.8,98,98,98,30.03,30.03,0,0,0,0.09
2013-5-10,54.4,54.4,54.4,53.8,53.8,53.8,98,98,98,30.03,30.03,0,0,0,0.09
2013-5-11,54.4,54.4,54.4,53.8,53.8,53.8,98,98,98,30.03,30.03,0,0,0,0.09
2013-5-12,54.4,54.4,54.4,53.8,53.8,53.8,98,98,98,30.03,30.03,0,0,0,0.09
2013-5-13,54.4,54.4,54.4,53.8,53.8,53.8,98,98,98,30.03,30.03,0,0,0,0.09
2013-5-14,54.4,54.4,54.4,53.8,53.8,53.8,98,98,98,30.03,30.03,0,0,0,0.09
2013-5-15,54.4,54.4,54.4,53.8,53.8,53.8,98,98,98,30.03,30.03,0,0,0,0.09
2013-5-16,54.4,54.4,54.4,53.8,53.8,53.8,98,98,98,30.03,30.03,0,0,0,0.09
2013-5-17,54.4,54.4,54.4,53.8,53.8,53.8,98,98,98,30.03,30.03,0,0,0,0.09
2013-5-18,54.4,54.4,54.4,53.8,53.8,53.8,98,98,98,30.03,30.03,0,0,0,0.09
2013-5-19,75.1,62.2,54.4,73.8,61.5,53.8,98,98,90,30.17,30.03,10,0,10,0.36
2013-5-20,82.4,72.1,66.6,74.1,68.7,63.2,98,90,55,30.18,30.07,8,0,8,0.84
2013-5-21,84.1,71.5,64.8,74.3,68.5,63.6,98,91,66,30.12,30.04,7,0,7,0.04
2013-5-22,83.9,73.7,64.4,71.2,66.5,61.9,98,80,50,30.09,29.95,2,0,10,0.03
2013-5-23,78.1,69.7,64.7,70.1,66.7,64.1,98,91,68,30.03,29.89,1,0,6,0.14
2013-5-24,72.1,64.4,49.8,64.2,50.9,24.5,98,68,22,30.29,29.93,8,0,8,0.00
2013-5-25,77.9,59.6,41.5,56.4,42.8,27.6,98,64,19,30.40,30.23,5,0,5,0.00
2013-5-26,76.3,62.5,54.2,59.0,48.9,34.8,98,67,23,30.37,30.25,7,0,7,0.00
2013-5-27,82.6,67.7,50.8,63.3,54.0,47.2,98,68,31,30.35,30.22,7,0,7,0.00
2013-5-28,84.0,73.6,64.0,68.0,63.8,57.2,98,75,43,30.31,30.21,10,0,10,0.00
2013-5-29,84.7,73.5,62.0,68.7,62.7,56.9,98,72,42,30.32,30.22,7,0,7,0.00
2013-5-30,85.3,72.7,60.4,68.6,62.9,52.2,98,76,36,30.35,30.23,7,0,7,0.00
2013-5-31,86.5,74.9,62.9,71.6,66.3,60.4,98,78,43,30.31,30.17,8,0,8,0.00
2013-6-1,86.7,76.8,67.6,71.2,67.2,58.3,98,75,41,30.20,30.08,10,0,10,0.00
2013-6-2,85.1,75.3,68.4,75.8,68.6,62.0,98,81,49,30.12,29.96,9,0,9,0.00
2013-6-3,84.1,73.1,66.4,75.6,69.4,65.8,98,90,57,30.03,29.90,4,0,4,12.57
2013-6-4,83.8,72.9,64.8,72.7,68.0,64.2,98,86,55,30.13,30.01,7,0,7,0.00
2013-6-5,79.8,71.3,66.3,71.9,68.5,65.7,98,91,71,30.17,30.05,7,0,7,0.00
2013-6-6,77.9,71.4,68.4,76.3,70.8,67.8,98,98,86,30.06,29.88,7,0,8,0.00
2013-6-7,80.1,70.9,66.8,75.5,69.5,66.0,98,95,77,29.92,29.69,8,0,8,0.00
2013-6-8,67.3,67.1,66.9,66.7,66.5,66.3,98,98,98,29.91,29.91,0,0,0,0.00
2013-12-28,55.2,49.4,45.0,40.8,29.8,15.5,85,51,21,30.36,30.21,0,0,4,0.00
2013-12-29,54.2,45.1,38.8,51.0,44.5,37.4,100,98,76,30.18,29.86,9,0,10,1.46
2013-12-30,53.6,42.6,32.4,47.4,39.2,32.4,100,90,56,30.21,30.03,6,0,6,0.00
2013-12-31,51.6,41.5,30.7,42.5,32.0,15.3,100,76,24,30.47,30.18,7,0,8,0.00
2014-1-1,51.0,38.2,29.4,35.8,30.1,20.4,100,77,33,30.50,30.23,6,0,6,0.00
2014-1-2,49.6,43.7,36.3,48.0,41.8,27.1,100,93,65,30.23,29.72,7,0,9,0.19